Grand Island, NE

8:57 PM CST on January 23, 2018 (GMT -0600)
Central Nebraska Regional

Weather History for KGRI - November, 2011

Change the Weather History Date:

Thursday, November 17, 2011

  Actual Average Record
Temperature  
Mean Temperature 34 °F 37 °F  
Max Temperature 52 °F 49 °F 72 °F (1943)
Min Temperature 16 °F 26 °F -2 °F (1959)
Degree Days  
Heating Degree Days 31 28  
Month to date heating degree days 402 400  
Since 1 July heating degree days 892 923  
Cooling Degree Days 0 0  
Month to date cooling degree days 0 0  
Year to date cooling degree days 1112 1034  
Moisture  
Dew Point 19 °F    
Average Humidity 57    
Maximum Humidity 84    
Minimum Humidity 29    
Precipitation  
Precipitation 0.00 in 0.04 in 1.04 in (1917)
Month to date precipitation 0.21 0.70  
Year to date precipitation 26.05 25.56  
Snow  
Snow 0.00 in 0.10 in 2.50 in (1958)
Month to date snowfall T 1.4  
Since 1 July snowfall T 2.5  
Since 1 September snowfall T 2.5  
Snow Depth 0.00 in    
Sea Level Pressure  
Sea Level Pressure 30.11 in    
Wind  
Wind Speed 16 mph (SSW)    
Max Wind Speed 28 mph    
Max Gust Speed 41 mph    
Visibility 10 miles    
Events      
T = Trace of Precipitation, MM = Missing Value Source: NWS Daily Summary

Daily Weather History Graph

Daily Weather History Graph

Search for Another Location

Airport or City:

Trip Planner

Search our weather history database for the weather conditions in past years. The results will help you decide how hot, cold, wet, or windy it might be!

Date:

Astronomy

Nov. 17, 2011 Rise Set
Actual Time 7:22 AM CST 5:13 PM CST
Civil Twilight 6:53 AM CST 5:42 PM CST
Nautical Twilight 6:19 AM CST 6:16 PM CST
Astronomical Twilight 5:47 AM CST 6:48 PM CST
Moon 11:36 PM CST (11/17) 12:31 PM CST (11/17)
Length of Visible Light 10h 49m
Length of Day
9h 50m
Waning Gibbous, 59% of the Moon is Illuminated
Nov 17
Waning Gibbous
Nov 18
Last Quarter
Nov 25
New
Dec 2
First Quarter
Dec 10
Full

Hourly Weather History & Observations

Time (CST) Temp. Windchill Dew Point Humidity Pressure Visibility Wind Dir Wind Speed Gust Speed Precip Events Conditions
12:53 AM 19.0 °F 11.1 °F 15.1 °F 85% 30.36 in 10.0 mi SW 5.8 mph - N/A   Clear
1:53 AM 21.2 °F 10.1 °F 17.6 °F 86% 30.31 in 10.0 mi WSW 10.4 mph - N/A   Clear
2:53 AM 21.0 °F 9.9 °F 16.0 °F 81% 30.36 in 10.0 mi WSW 10.4 mph - N/A   Clear
3:53 AM 18.0 °F 7.7 °F 12.9 °F 81% 30.34 in 10.0 mi WSW 8.1 mph - N/A   Clear
4:53 AM 18.0 °F 11.1 °F 12.0 °F 78% 30.32 in 10.0 mi SW 4.6 mph - N/A   Clear
5:53 AM 18.0 °F 7.7 °F 12.0 °F 78% 30.32 in 10.0 mi SW 8.1 mph - N/A   Clear
6:53 AM 19.0 °F 9.0 °F 12.0 °F 74% 30.31 in 10.0 mi SW 8.1 mph - N/A   Clear
7:53 AM 21.2 °F 10.1 °F 14.0 °F 74% 30.21 in 10.0 mi SW 10.4 mph - N/A   Clear
8:53 AM 28.0 °F 16.5 °F 18.0 °F 66% 30.28 in 10.0 mi SW 15.0 mph - N/A   Clear
9:53 AM 32.0 °F 20.8 °F 21.0 °F 64% 30.25 in 10.0 mi SW 17.3 mph 25.3 mph N/A   Clear
10:53 AM 39.2 °F 30.2 °F 23.0 °F 52% 30.15 in 10.0 mi SW 17.3 mph 23.0 mph N/A   Clear
11:53 AM 46.0 °F 37.8 °F 19.9 °F 35% 30.16 in 10.0 mi SW 23.0 mph 31.1 mph N/A   Clear
12:53 PM 46.9 °F - 21.9 °F 37% 30.10 in - North - - N/A   Unknown
12:55 PM - - - N/A% 30.05 in 10.0 mi SSW 23.0 mph - N/A   Clear
1:04 PM - - - N/A% - - North - - N/A   Unknown
1:53 PM 50.0 °F - 24.1 °F 36% 30.05 in 10.0 mi SSW 23.0 mph 41.4 mph N/A   Clear
2:53 PM 51.1 °F - 23.0 °F 33% 30.01 in 10.0 mi SSW 24.2 mph 35.7 mph N/A   Clear
3:53 PM 51.1 °F - 23.0 °F 33% 29.98 in 10.0 mi South 19.6 mph 32.2 mph N/A   Clear
4:53 PM 50.0 °F - 19.0 °F 29% 29.95 in 10.0 mi SSW 18.4 mph 25.3 mph N/A   Clear
5:53 PM 46.0 °F 39.6 °F 19.9 °F 35% 29.94 in 10.0 mi South 15.0 mph - N/A   Clear
6:53 PM 45.0 °F 37.6 °F 21.0 °F 39% 29.93 in 10.0 mi South 17.3 mph - N/A   Clear
7:53 PM 44.1 °F 35.9 °F 21.9 °F 42% 29.91 in 10.0 mi South 19.6 mph 26.5 mph N/A   Clear
8:53 PM 42.1 °F 33.1 °F 23.0 °F 47% 29.88 in 10.0 mi South 20.7 mph 25.3 mph N/A   Clear
9:53 PM 41.0 °F 31.6 °F 21.9 °F 47% 29.86 in 10.0 mi South 20.7 mph 29.9 mph N/A   Clear
10:53 PM 41.0 °F 31.4 °F 23.0 °F 49% 29.83 in 10.0 mi South 21.9 mph 32.2 mph N/A   Clear
11:53 PM 39.9 °F 29.7 °F 23.0 °F 51% 29.80 in 10.0 mi SSW 23.0 mph 29.9 mph N/A   Clear